Meteo Giornale » Osservazioni meteo Croazia » Dubrovnik-Cilipi

ore: 20:00 - Osservazioni Meteo Dubrovnik-Cilipi
Lat. 42° 34' N Lon. 18° 16' E Alt. 157 metri s.l.m.

sereno

27 °C

Sereno

Temp. 24 Ore

24 °C

30 °C

Ovest/Nord-Ovest

13 Km/h

Dew point 22 °C

Umidità 74 %

Visibilità  10 Km

Il sole sorge alle ore 06:11

Il sole tramonta alle ore 19:22

Data e Ora Cielo e Fenomeni T °C DP °C Um. % Pres. hPa Vis. km Vento km/h
Oggi h: 20:00 sereno Sereno 27 22 74 1015 10 O/NO 13
Oggi h: 19:30 sereno Sereno 27 24 83 1015 10 NO 18.5
Oggi h: 19:00 sereno Sereno 28 24 78 1015 10 O/NO 20.3
Oggi h: 18:30 sereno Sereno 28 24 78 1015 10 O/NO 22.2
Oggi h: 18:00 sereno Sereno 28 23 74 1015 10 NO 20.3
Oggi h: 17:30 poco_nuvoloso Poco Nuvoloso 29 24 74 1015 10 O/NO 20.3
Oggi h: 17:00 poco_nuvoloso Poco Nuvoloso 28 23 74 1015 10 O/NO 22.2
Oggi h: 16:30 poco_nuvoloso Poco Nuvoloso 29 23 70 1016 10 O/NO 18.5
Oggi h: 16:00 poco_nuvoloso Poco Nuvoloso 29 23 70 1016 10 NO 20.3
Oggi h: 15:30 poco_nuvoloso Poco Nuvoloso 29 24 74 1016 10 O/NO 20.3
Oggi h: 15:00 nuvoloso Nuvoloso 29 24 74 1016 10 O/NO 18.5
Oggi h: 14:30 poco_nuvoloso Poco Nuvoloso 30 24 70 1016 10 O 18.5
Oggi h: 14:00 poco_nuvoloso Poco Nuvoloso 29 24 74 1016 10 O 18.5
Oggi h: 13:30 poco_nuvoloso Poco Nuvoloso 29 24 74 1016 10 O 16.7
Oggi h: 13:00 poco_nuvoloso Poco Nuvoloso 29 23 70 1016 10 O 14.8
Oggi h: 12:30 poco_nuvoloso Poco Nuvoloso 29 23 70 1017 10 O 13
Oggi h: 12:00 poco_nuvoloso Poco Nuvoloso 29 23 70 1017 10 O 11.1
Oggi h: 11:30 poco_nuvoloso Poco Nuvoloso 29 23 70 1017 10 O 13
Oggi h: 11:00 poco_nuvoloso Poco Nuvoloso 29 23 70 1017 10 O 9.3
Oggi h: 10:30 poco_nuvoloso Poco Nuvoloso 28 23 74 1017 10 O 11.1
Oggi h: 10:00 poco_nuvoloso Poco Nuvoloso 28 23 74 1016 10 O/NO 9.3
Oggi h: 09:30 poco_nuvoloso Poco Nuvoloso 28 22 69 1016 10 N 5.5
Oggi h: 09:00 poco_nuvoloso Poco Nuvoloso 28 23 74 1016 10 N 5.5
Oggi h: 08:30 poco_nuvoloso Poco Nuvoloso 27 23 78 1016 10 N 1.8
Oggi h: 08:00 poco_nuvoloso Poco Nuvoloso 26 21 73 1016 10 N 5.5
Oggi h: 07:30 poco_nuvoloso Poco Nuvoloso 25 20 73 1016 10 E 9.3
Oggi h: 07:00 poco_nuvoloso Poco Nuvoloso 25 20 73 1016 10 E 9.3
Oggi h: 06:30 sereno Sereno 24 20 78 1015 10 E 7.4
Oggi h: 06:00 sereno Sereno 24 20 78 1015 10 E 11.1
Oggi h: 05:30 sereno Sereno 24 20 78 1015 10 E/SE 7.4
Oggi h: 05:00 sereno Sereno 26 21 73 1015 10 N 5.5
Oggi h: 04:30 sereno Sereno 26 21 73 1015 10 N 5.5
Oggi h: 04:00 sereno Sereno 24 22 88 1015 10 N 3.7
Oggi h: 03:30 sereno Sereno 25 21 78 1015 10 N 5.5
Oggi h: 03:00 sereno Sereno 25 20 73 1015 10 E 13
Oggi h: 02:30 coperto Coperto 24 20 78 1015 10 E 11.1
Oggi h: 02:00 sereno Sereno 24 20 78 1015 10 E 7.4
Oggi h: 01:30 sereno Sereno 24 22 88 1015 10 E 7.4
Oggi h: 01:00 sereno Sereno 25 22 83 1015 10 N 5.5
Oggi h: 00:30 poco_nuvoloso Poco Nuvoloso 25 23 88 1015 10 E 7.4
Oggi h: 00:00 poco_nuvoloso Poco Nuvoloso 25 21 78 1015 10 E 11.1
Ieri h: 23:30 poco_nuvoloso Poco Nuvoloso 25 23 88 1015 10 N 3.7
Ieri h: 23:00 sereno Sereno 25 23 88 1014 10 N 1.8
Ieri h: 22:30 sereno Sereno 26 25 94 1014 10 N 5.5
Ieri h: 22:00 sereno Sereno 25 24 94 1014 10 N 3.7
Ieri h: 21:30 sereno Sereno 26 24 88 1014 10 N 3.7
Ieri h: 21:00 sereno Sereno 26 25 94 1014 10 N 5.5